Theta_e
303 301 300 300 300 300 300 300 301 301 301 302 302 302 303 305 308 306 305 304 304 304 305 309 311 312 311 312 317 322 326 327 326 326 325 325 323 324 325 325 324 325 325 324 324
307 306 304 303 301 300 300 300 301 301 301 301 302 303 303 310 312 311 312 305 303 311 312 311 310 310 310 312 316 317 318 323 325 325 325 325 324 324 323 322 322 323 324 323 323
303 306 307 306 306 303 301 300 300 301 301 302 303 303 305 314 313 311 309 310 310 311 310 309 308 311 310 311 313 313 316 320 322 322 322 321 321 321 320 320 322 321 322 322 322
302 303 304 306 307 307 305 301 300 301 301 302 304 303 305 314 312 312 312 311 311 311 308 306 306 311 308 308 311 312 312 316 318 319 318 317 317 317 318 318 319 320 320 320 321
309 307 305 305 306 307 307 302 301 301 301 301 305 303 305 311 312 311 312 312 312 312 312 312 311 310 309 308 310 310 310 311 312 313 314 314 314 314 316 316 317 317 318 318 319
309 309 309 305 305 307 305 301 301 301 301 303 304 304 305 308 311 311 311 311 310 310 312 312 311 311 310 309 309 309 309 309 311 311 312 312 313 314 315 316 316 317 317 318 318
308 308 309 307 305 306 303 302 301 301 301 305 304 304 305 306 311 310 310 309 309 309 311 310 310 310 310 309 309 309 309 307 308 310 310 312 312 313 314 315 316 315 315 316 317
308 308 309 308 305 304 302 302 302 301 302 305 306 305 306 311 310 310 310 309 310 310 310 311 310 310 310 309 308 308 305 306 307 309 310 312 312 313 312 312 313 313 313 314 314
308 309 310 307 305 304 309 311 312 312 306 306 308 310 314 312 311 310 310 310 310 309 310 310 309 310 308 306 305 305 306 308 308 308 309 311 310 310 312 312 312 312 312 313 313
307 309 310 306 306 309 311 310 312 312 311 312 312 313 313 314 312 310 310 310 309 310 309 309 309 305 303 304 308 309 309 309 309 308 309 309 308 310 311 311 311 312 312 312 313
305 309 310 306 306 311 312 311 310 310 310 310 310 312 311 314 310 310 310 310 309 309 306 306 306 307 307 306 308 309 309 309 308 310 310 309 309 309 310 310 310 311 312 312 312
305 309 310 306 311 312 312 311 310 310 309 311 310 310 309 310 311 310 310 310 309 307 306 305 306 307 308 307 307 307 308 310 309 310 311 309 309 309 309 309 310 311 311 312 312
308 310 310 305 312 312 311 311 310 311 308 309 311 310 310 310 311 310 310 310 308 306 306 306 307 308 309 310 310 310 310 311 311 311 308 308 307 308 309 310 310 310 311 311 311
309 310 310 307 312 311 311 311 311 311 309 313 312 311 311 311 310 311 310 310 307 306 305 306 307 308 308 310 310 310 311 311 310 308 307 309 308 307 307 307 308 308 309 310 311
309 311 309 309 312 312 312 311 311 312 311 314 310 310 310 310 310 311 310 310 307 307 306 307 307 308 308 310 310 308 311 310 310 308 308 307 307 306 306 308 307 307 310 311 312
305 307 305 311 312 312 311 310 312 310 314 310 309 308 308 309 309 310 310 309 308 307 306 305 307 307 307 311 310 308 308 305 304 305 307 306 307 306 306 308 307 310 313 313 313
308 306 307 311 311 311 309 312 311 311 309 308 308 307 308 310 310 310 309 308 307 307 307 307 307 309 311 310 307 305 304 306 306 305 306 306 307 306 307 308 307 311 313 313 312
311 311 311 313 312 312 311 309 313 312 308 308 308 307 309 310 310 311 310 310 311 306 305 308 308 310 312 309 308 307 305 306 309 309 305 306 307 306 307 308 310 312 313 313 312
313 313 313 312 312 312 311 310 311 311 311 310 308 308 310 311 310 310 310 312 311 310 310 310 310 309 310 309 308 308 308 305 306 305 305 306 306 307 308 308 309 311 312 312 311
312 313 313 310 310 312 308 312 311 311 310 309 307 309 310 310 311 311 311 312 312 311 308 309 311 310 310 309 308 307 306 307 304 310 311 308 307 308 307 307 307 309 310 309 310
311 314 313 311 311 312 308 310 312 311 310 310 309 308 309 310 310 310 310 311 311 311 310 309 310 310 310 309 308 306 308 307 304 303 306 307 308 306 307 308 309 306 309 309 310
311 308 312 312 309 303 307 309 309 309 311 310 308 308 309 309 310 310 310 311 310 311 311 310 309 311 311 309 307 306 307 307 304 305 311 310 311 309 307 306 307 308 309 312 312
306 311 312 312 304 304 303 307 308 309 311 309 309 309 307 308 309 309 310 309 308 309 311 310 309 311 309 307 306 310 310 307 306 305 311 312 310 307 307 307 308 308 311 312 312
303 304 305 308 305 304 304 305 309 308 309 307 307 307 307 307 307 308 308 309 307 308 309 311 308 311 309 307 304 309 309 309 309 313 311 311 311 310 309 309 307 311 311 310 310
301 301 302 299 300 302 303 304 307 307 306 306 306 304 305 306 306 307 306 306 307 307 307 308 310 309 309 310 310 310 311 311 311 311 312 312 311 311 310 309 309 310 309 309 309
300 301 301 302 302 301 302 304 304 305 305 305 305 304 304 304 305 306 306 306 306 305 307 305 307 308 310 310 311 311 310 310 310 311 311 311 311 311 311 310 309 309 309 309 309
296 300 303 300 300 302 299 303 303 302 304 305 304 303 303 304 305 304 304 304 305 305 305 307 306 308 310 309 310 311 310 310 310 312 311 312 311 310 309 310 310 309 309 309 308
Wind_Speed
19 18 17 15 14 13 12 11 10 10 10 11 12 14 16 17 17 15 15 10 9 13 13 10 8 8 8 8 9 5 2 5 6 5 3 9 6 11 7 13 15 4 13 21 31
17 18 18 18 17 15 13 12 11 10 10 11 13 15 14 14 10 8 6 2 6 7 6 7 7 6 5 4 6 4 3 7 4 3 5 14 5 14 7 16 9 16 21 25 24
19 18 18 19 18 17 16 13 11 10 10 11 13 13 10 11 5 8 4 2 3 5 6 5 3 5 5 4 5 3 3 1 2 4 4 9 4 6 7 11 3 21 29 29 23
21 21 20 19 19 19 17 15 12 10 9 10 12 10 7 5 1 2 6 8 7 5 2 3 3 4 3 5 5 2 4 4 2 7 8 8 20 9 21 21 19 19 26 22 20
23 22 22 21 20 20 19 14 12 10 8 9 10 7 5 4 1 2 2 5 5 3 2 4 6 3 2 2 1 2 2 3 4 8 14 15 17 19 27 21 21 15 17 20 23
23 23 23 22 20 20 18 14 10 9 7 7 7 5 4 3 4 2 4 6 6 5 1 3 0 1 2 2 2 0 2 7 5 7 8 6 13 21 22 11 21 23 24 21 19
24 24 24 22 20 18 15 11 8 7 6 5 5 6 8 10 5 4 4 4 6 5 5 2 2 1 0 2 0 2 2 4 8 11 7 12 12 17 21 17 17 10 10 9 8
24 23 23 22 19 15 10 8 6 4 5 5 5 6 7 4 8 5 5 3 2 2 5 6 8 4 2 1 5 2 4 1 4 1 6 14 13 3 12 15 17 12 11 13 15
25 23 21 20 16 9 7 6 5 3 4 5 4 4 5 4 6 6 4 3 5 4 4 8 4 2 2 4 5 5 1 1 7 5 4 2 3 4 15 16 14 20 16 15 16
25 21 20 17 11 8 4 8 8 6 5 1 4 4 1 3 3 6 7 9 6 4 1 2 2 3 3 4 2 1 2 2 4 5 6 4 7 6 15 15 14 18 18 13 12
25 21 16 11 7 8 10 1 3 2 10 7 8 9 14 5 1 8 4 3 4 2 2 4 4 3 7 7 2 1 3 3 4 3 6 8 10 8 11 10 13 12 14 18 13
23 18 13 5 4 6 7 6 6 6 8 9 13 17 17 14 6 11 8 7 2 1 1 5 1 4 3 3 4 4 2 2 4 5 3 9 18 14 8 7 10 11 19 17 14
20 15 9 1 3 5 8 9 6 7 3 7 2 4 4 10 6 5 5 3 2 1 3 4 4 1 1 2 3 2 3 2 5 4 5 6 6 2 4 6 11 15 14 19 26
19 12 5 4 5 4 2 6 10 5 4 3 3 0 5 3 4 6 13 5 1 5 4 4 3 3 2 3 4 2 5 3 2 4 3 4 6 2 1 5 3 15 17 18 16
16 9 2 7 3 1 6 10 6 2 3 2 1 2 2 5 4 1 8 11 7 4 3 5 4 3 1 2 4 4 2 1 1 2 1 4 1 7 5 3 4 8 17 17 19
12 8 3 3 1 6 11 7 0 4 1 3 3 6 4 4 4 5 5 7 2 4 2 7 2 4 5 3 2 2 3 4 3 2 2 5 3 4 3 4 8 8 18 16 15
12 10 7 5 6 11 9 0 4 4 3 4 3 4 3 3 4 2 3 1 5 2 3 2 1 3 2 4 3 6 6 4 5 3 4 2 5 7 8 10 9 9 21 23 23
11 10 7 6 9 12 6 4 3 2 2 3 3 6 5 3 1 5 4 1 5 2 2 5 3 4 2 4 5 3 6 4 4 3 4 3 7 7 6 13 20 16 21 24 28
4 9 9 8 11 12 3 4 5 1 4 4 6 3 2 1 4 5 4 2 2 1 3 4 3 2 1 3 7 2 3 3 1 2 3 5 7 11 13 9 10 18 18 27 35
7 7 8 10 12 9 4 3 2 2 4 2 4 2 2 2 2 0 2 2 3 2 0 2 2 2 2 2 0 5 6 2 2 2 5 4 7 11 11 15 6 7 15 31 36
7 2 6 10 10 4 3 4 4 5 5 3 3 4 5 3 4 2 4 3 4 8 6 3 3 3 1 5 7 1 2 4 3 4 4 3 7 6 6 8 5 7 22 29 34
6 2 7 10 5 2 0 1 6 6 5 5 3 4 4 4 3 3 5 5 10 2 4 4 4 4 8 3 3 5 7 6 4 5 4 3 14 3 13 5 6 13 21 28 27
9 5 5 8 2 3 6 5 4 3 3 4 3 2 2 1 3 4 3 6 6 4 3 4 1 1 5 1 3 3 4 4 3 2 11 7 11 2 6 9 18 18 19 24 29
6 4 4 7 5 3 4 5 4 5 2 5 4 2 3 2 3 4 2 3 3 2 10 2 5 6 6 4 4 3 7 6 5 5 9 13 27 20 16 15 11 17 19 27 29
7 1 1 4 2 2 2 3 4 4 6 7 3 5 3 4 4 6 5 3 7 12 6 6 8 7 8 9 7 11 17 18 15 18 12 21 19 24 16 13 9 15 20 23 26
5 4 3 4 6 4 2 2 2 4 3 4 2 7 5 5 7 16 2 4 5 5 4 1 2 4 4 8 12 17 19 19 20 20 19 22 23 18 12 9 12 15 19 27 26
6 3 3 3 3 1 3 2 2 4 7 9 4 5 6 11 11 19 22 21 12 6 4 3 3 1 5 1 6 9 15 12 7 7 8 8 13 2 6 6 10 19 26 28 27
Wind_Direction
355 352 348 344 341 337 333 332 330 327 326 328 329 323 322 323 316 301 288 273 254 224 228 227 226 224 215 198 199 185 183 208 205 169 197 285 10 301 310 291 315 327 326 346 345
353 350 347 343 339 335 330 325 322 321 323 327 328 324 327 333 340 4 345 295 209 190 204 214 205 217 187 187 188 179 185 216 182 173 285 265 262 301 328 314 302 319 318 335 349
349 348 345 343 341 334 327 319 315 313 314 322 327 328 329 339 351 21 35 88 153 210 223 231 219 185 191 171 188 209 213 225 24 67 313 298 306 293 293 288 17 319 319 323 332
356 349 345 340 338 333 327 316 309 306 307 318 325 328 326 342 131 48 49 71 82 78 108 207 193 175 169 183 197 218 251 212 155 274 279 285 305 276 268 267 292 302 304 317 322
354 351 345 339 335 332 326 316 306 300 300 313 325 327 319 305 147 156 11 14 21 34 82 108 147 178 205 196 335 169 299 326 290 263 256 281 276 276 262 286 299 304 308 309 305
347 347 344 341 335 332 328 317 304 291 288 304 316 322 294 278 177 211 282 316 321 331 352 129 178 296 168 149 154 270 297 288 264 234 235 230 269 269 272 313 302 306 306 304 306
338 339 340 342 338 335 332 321 308 292 271 289 301 311 272 238 198 201 286 315 315 299 282 304 313 283 90 318 288 268 305 301 221 224 226 215 261 257 291 314 302 333 336 336 327
338 335 337 341 340 342 339 333 321 296 264 279 295 303 263 181 202 234 240 282 293 274 266 272 282 267 210 290 10 48 59 22 288 147 246 187 244 54 5 357 336 345 353 346 339
339 335 337 341 343 1 4 352 332 283 252 263 283 287 272 213 230 206 241 266 279 323 309 257 267 164 105 81 4 6 145 299 320 34 338 145 302 322 335 331 321 322 327 335 333
341 338 337 343 357 34 41 45 65 92 77 16 265 304 275 331 270 244 270 273 274 306 321 149 144 82 48 81 214 226 356 306 257 325 5 300 227 287 309 312 304 309 315 324 328
339 336 340 348 38 63 47 12 8 325 307 244 268 270 290 297 264 244 251 236 252 25 31 21 74 211 251 209 175 109 186 230 285 348 9 291 288 284 277 275 285 290 309 311 318
335 333 342 349 73 68 60 76 21 308 305 295 266 256 258 273 293 261 254 230 140 272 46 23 211 212 269 164 182 180 175 230 288 285 301 277 294 286 217 235 233 275 299 292 299
336 333 342 198 108 104 81 46 2 326 280 297 273 247 233 228 235 277 203 194 164 177 189 163 240 3 96 109 132 156 160 222 237 311 290 314 281 90 279 250 285 296 284 293 303
337 340 351 161 145 129 53 349 332 316 40 294 301 15 177 205 267 262 230 202 139 219 185 219 261 155 133 200 141 197 202 215 261 31 292 37 286 260 119 268 277 316 313 305 307
350 355 14 162 138 116 332 325 317 306 53 281 325 8 253 204 312 270 227 204 209 202 102 259 181 226 359 212 175 201 160 332 294 241 103 280 290 277 309 330 330 309 305 296 300
9 20 60 135 118 332 322 331 228 48 237 330 25 354 350 271 280 278 206 205 176 166 200 248 238 182 201 115 101 77 40 34 51 76 20 260 183 244 241 226 315 308 322 322 311
35 50 80 49 348 331 327 256 43 117 334 334 317 342 296 298 341 9 260 75 181 132 238 259 211 302 138 108 48 73 52 340 345 3 234 285 294 244 248 278 269 255 292 312 315
47 47 42 14 359 352 343 58 106 284 301 285 289 300 204 351 360 335 23 69 37 69 150 174 304 167 179 145 188 189 152 158 244 229 245 1 251 252 221 237 278 264 281 298 314
39 35 19 4 356 354 352 66 195 275 308 290 314 259 276 87 13 23 12 22 7 328 226 155 270 308 185 175 137 170 173 192 153 8 32 228 290 293 281 284 271 268 290 305 317
319 314 8 4 348 348 75 225 230 259 307 270 229 251 254 299 329 304 242 148 341 287 306 176 304 276 312 83 278 159 161 86 21 258 259 258 254 238 301 292 300 309 305 317 315
334 302 353 350 345 27 118 239 283 290 336 280 262 264 257 247 221 245 232 223 148 263 359 163 184 266 279 198 199 168 170 75 132 154 202 300 264 220 239 259 291 306 318 319 315
1 1 345 341 34 24 153 262 302 276 290 279 245 238 225 219 232 246 232 229 204 165 215 190 163 223 234 270 226 170 192 156 137 244 216 216 262 340 279 302 313 315 320 331 338
352 319 341 354 76 339 320 300 268 303 317 316 307 27 7 271 284 248 280 89 78 160 189 182 239 283 316 20 356 162 181 185 184 128 233 246 267 275 339 316 313 315 322 325 331
5 10 353 44 67 75 347 275 289 327 288 343 287 25 358 306 228 272 297 300 12 180 296 221 189 206 225 233 153 282 258 222 215 245 271 234 274 278 288 289 297 304 317 320 322
19 61 34 303 349 328 242 278 289 321 341 358 353 53 338 285 305 254 263 306 298 296 289 181 226 206 236 249 269 259 262 260 244 249 246 275 273 281 290 287 280 299 308 306 312
21 7 334 280 297 309 223 232 291 360 306 292 46 319 291 230 234 283 274 207 224 288 188 35 268 170 256 235 242 258 260 254 253 253 256 261 269 275 270 274 271 292 310 313 308
11 329 306 279 317 350 240 262 239 23 276 256 335 289 270 274 289 280 267 254 240 214 214 179 142 28 268 227 295 272 253 241 218 218 205 236 257 281 274 272 297 310 307 306 302